Location: Tel Aviv-Yafo
(32.0678°N, 34.7647°E)
Time: 01:43:55
(UTC+02:00)

Daily predictions for brighter satellites

Satellite Brightness Start Highest point End
(mag) Time Altitude Azimuth Time Altitude Azimuth Time Altitude Azimuth
CZ-4C R/B 3.7 03:38:51 24° N 03:43:25 49° NE 03:51:21 10° SE
CZ-2C R/B 4.1 03:43:49 10° NE 03:48:28 33° E 03:53:04 10° SSE
COSMOS 2428 3.4 03:53:16 46° SE 03:54:19 52° ESE 03:59:47 10° NNE
Cosmos 2360 Rocket 4.0 03:59:45 20° N 03:59:45 20° N 04:01:28 10° N
ATLAS 3B R/B 2.8 03:57:15 63° NNW 03:57:15 63° NNW 04:03:09 10° NNE
NOSS 3-2 (C) 3.7 04:01:07 53° N 04:01:07 53° N 04:06:00 10° NNE
Okean O Rocket 3.5 03:56:31 10° NE 04:00:23 29° E 04:04:13 10° SSE
OAO 2 Rocket 3.7 04:09:04 58° NE 04:09:04 58° NE 04:13:22 10° E
CZ-3A R/B 3.8 04:09:15 37° SSW 04:10:46 45° SSE 04:29:55 10° E
SL-4 R/B 3.7 04:17:05 24° NE 04:17:05 24° NE 04:18:33 10° NE
IDEFIX/ARIANE 42P 3.8 04:11:42 10° N 04:14:18 29° N 04:14:18 29° N
ASTEX 1 3.7 04:16:09 10° NNE 04:21:01 66° E 04:25:51 10° S
Cosmos 1553 Rocket 4.0 04:15:57 10° N 04:22:05 78° E 04:28:16 10° S
Cosmos 2219 Rocket 2.1 04:21:21 34° SSW 04:23:55 83° ESE 04:29:31 10° NNE
PAYLOAD A 3.7 04:20:53 10° N 04:25:45 75° WNW 04:26:03 72° WSW
Cosmos 1151 Rocket 3.7 04:21:58 10° S 04:26:07 52° E 04:30:16 10° NNE
Cosmos 1503 Rocket 3.9 04:26:38 59° SW 04:27:34 75° WNW 04:32:56 10° NNE
Cosmos 2333 Rocket 2.1 04:26:46 25° SSW 04:30:15 88° ESE 04:35:57 10° NNE
Cosmos 540 Rocket 3.3 04:32:11 52° NW 04:33:16 68° WSW 04:38:22 10° S
CENTAUR R/B 2.3 04:33:32 43° SW 04:35:29 69° WNW 04:42:01 10° NNE
Timation 1 Rocket 4.3 04:34:05 43° WNW 04:35:39 56° WSW 04:41:29 10° S
COSMO-SKYMED 1 4.1 04:32:13 10° SE 04:36:12 37° ENE 04:40:12 10° N
MOS 1-B 4.4 04:33:10 10° N 04:38:49 56° WNW 04:42:12 24° SW
PAYLOAD B 4.1 04:33:27 10° NNE 04:38:59 84° WNW 04:44:27 10° SSW
MSX 3.8 04:34:09 10° N 04:39:48 60° WNW 04:45:26 10° SSW
S3M 4.0 04:34:47 10° N 04:41:12 89° W 04:47:32 10° S
Cosmos 1844 4.2 04:35:29 10° NNW 04:41:14 63° ENE 04:46:54 10° SSE
GPS 2-04 Rocket1 2.6 04:42:09 71° W 04:42:34 87° NNW 04:46:38 10° ENE
Cosmos 1655 Rocket 4.1 04:39:15 10° SSW 04:45:26 52° W 04:51:40 10° N
Cosmos 1633 Rocket 2.8 04:42:41 10° N 04:47:01 72° W 04:51:19 10° S
COSMOS 2441 4.5 04:42:22 10° N 04:47:07 50° WNW 04:49:27 27° SW
Cosmos 2228 Rocket 3.5 04:45:36 10° S 04:50:03 65° E 04:54:29 10° NNE
SAR-Lupe-2 3.6 04:49:04 10° S 04:52:16 52° WSW 04:52:16 52° WSW
Cosmos 1354 Rocket 4.3 04:51:47 32° WSW 04:53:39 44° WNW 04:58:44 10° N
Cosmos 968 Rocket 3.5 04:50:16 19° SW 04:53:46 55° WNW 04:58:48 10° N
Meteor 2-3 Rocket 4.3 04:49:00 10° NNW 04:54:11 35° W 04:59:21 10° SSW
Cosmos 1328 Rocket 3.7 04:54:44 22° SW 04:57:08 45° W 05:01:19 10° N
BREEZE-M (TANK) 3.9 04:55:13 27° W 04:58:09 38° NW 05:01:22 10° NNE
OAO 3 Copernicus 4.3 05:01:06 28° WSW 05:03:47 84° SSE 05:08:50 10° ENE
USA 32 3.9 04:59:47 10° S 05:05:00 79° W 05:10:14 10° N
Centaur AC-116 4.3 05:04:21 17° SSW 05:06:09 30° SSE 05:12:19 10° E
SL-24 R/B - RUBIN 2 4.3 05:05:52 28° WNW 05:06:22 29° NW 05:10:10 10° N
SJ-12 3.8 05:03:57 10° N 05:08:01 89° WNW 05:12:04 10° SSW
NOAA 6 3.9 05:05:55 10° N 05:11:05 80° WNW 05:16:13 10° SSW
Cosmos 1844 Rocket 2.8 05:08:35 10° NNW 05:13:56 49° WSW 05:19:15 10° S
CZ-3 Stage 3 2.6 05:12:58 16° SW 05:14:10 20° S 05:18:10 10° SE
Cosmos 1933 4.0 05:11:24 10° S 05:15:19 56° E 05:19:16 10° NNE
Cosmos 2315 Rocket 4.3 05:09:54 10° N 05:16:17 75° E 05:22:39 10° S
Cosmos 2237 Rocket 2.1 05:12:03 10° SSW 05:17:42 81° WNW 05:23:25 10° NNE
Cosmos 2278 Rocket 3.5 05:12:43 10° N 05:18:06 42° ENE 05:23:24 10° SE
Cosmos 1862 3.2 05:15:18 10° N 05:19:22 82° W 05:23:23 10° S
OAO 3 Rocket 3.1 05:19:14 20° W 05:22:30 77° NNW 05:27:09 10° ENE
ISS -0.6 05:21:15 10° SSE 05:22:40 12° SE 05:24:04 10° E
SKYMED 2 3.6 05:20:01 10° S 05:24:14 54° W 05:28:30 10° NNW
CZ-2C R/B 3.6 05:22:21 10° NNW 05:26:26 24° WNW 05:30:31 10° WSW
Cosmos 1633 3.0 05:27:25 10° N 05:30:56 63° E 05:34:26 10° SSE
Cosmos 1356 4.1 05:27:54 10° SW 05:31:03 33° W 05:34:13 10° NNW
CZ-4C R/B 3.7 05:25:06 10° NW 05:31:56 35° WSW 05:39:12 10° S
USA 215 4.4 05:30:20 10° ESE 05:36:20 40° NE 05:42:21 10° NNW
Okean O Rocket 2.9 05:33:19 10° NNW 05:36:30 20° WNW 05:39:40 10° WSW
METEOR-M 4.3 05:32:17 10° NNE 05:37:39 82° ESE 05:42:58 10° S
GPS 2-05 Rocket1 3.3 05:36:04 14° WNW 05:38:34 42° N 05:41:36 10° ENE
COSMOS 2428 4.1 05:35:22 11° W 05:38:48 18° WNW 05:42:39 10° NNW
Feng Yun 1-1 Rocket 4.1 05:35:44 10° N 05:41:07 80° WNW 05:46:32 10° SSW
Cosmos 1244 Rocket 4.4 05:36:54 10° S 05:43:02 77° W 05:49:16 10° N
Aureole 3 Rocket 3.9 05:38:11 10° NNW 05:43:06 34° W 05:46:47 10° SSW
Cosmos 1933 Rocket 4.1 05:41:00 10° NNW 05:45:06 37° W 05:49:10 10° SSW
Cosmos 2292 Rocket 3.0 05:43:49 10° SSW 05:46:48 51° W 05:50:19 10° N
Cosmos 1707 Rocket 4.1 05:42:57 10° S 05:47:18 66° E 05:51:40 10° NNE
ATLAS 3B R/B 4.4 05:45:14 10° WNW 05:48:09 13° NW 05:51:04 10° NNW
CZ-4B R/B 4.2 05:45:36 10° NNW 05:49:37 22° WNW 05:53:39 10° WSW
OAO 2 Rocket 3.5 05:48:18 10° WNW 05:53:15 64° SSW 05:58:08 10° ESE
